Time,TemperatureF,DewpointF,PressureIn,WindDirection,WindDirectionDegrees,WindSpeedMPH,WindSpeedGustMPH,Humidity,HourlyPrecipIn,Conditions,Clouds,dailyrainin,SolarRadiationWatts/m^2,SoftwareType,DateUTC
2013-01-02 00:01:00,31.0,12.6,29.26,N/A,-32768,0.0,0.0,46,0.00,,,0.00,0,Wunderground v.1.15,2013-01-02 05:01:00,
2013-01-02 00:03:00,31.2,12.8,29.25,N/A,-32768,0.0,0.0,46,0.00,,,0.00,0,Wunderground v.1.15,2013-01-02 05:03:00,
2013-01-02 00:05:00,31.0,12.6,29.25,N/A,-32768,0.0,0.0,46,0.00,,,0.00,0,Wunderground v.1.15,2013-01-02 05:05:00,
2013-01-02 00:07:00,31.0,12.6,29.24,N/A,-32768,0.0,0.0,46,0.00,,,0.00,0,Wunderground v.1.15,2013-01-02 05:07:00,
2013-01-02 00:13:00,30.7,12.8,29.25,N/A,-32768,0.0,0.0,47,0.00,,,0.00,0,Wunderground v.1.15,2013-01-02 05:13:00,
2013-01-02 00:19:00,30.4,12.5,29.24,N/A,-32768,0.0,0.0,47,0.00,,,0.00,0,Wunderground v.1.15,2013-01-02 05:19:00,
2013-01-02 00:24:00,30.2,12.4,29.24,N/A,-32768,0.0,0.0,47,0.00,,,0.00,0,Wunderground v.1.15,2013-01-02 05:24:00,
2013-01-02 00:29:00,30.1,12.7,29.25,N/A,-32768,0.0,0.0,48,0.00,,,0.00,0,Wunderground v.1.15,2013-01-02 05:29:00,
2013-01-02 00:35:00,29.8,12.0,29.24,N/A,-32768,0.0,0.0,47,0.00,,,0.00,0,Wunderground v.1.15,2013-01-02 05:35:00,
2013-01-02 00:41:00,29.7,11.9,29.24,N/A,-32768,0.0,0.0,47,0.00,,,0.00,0,Wunderground v.1.15,2013-01-02 05:41:00,
2013-01-02 00:46:00,29.5,11.7,29.23,N/A,-32768,0.0,0.0,47,0.00,,,0.00,0,Wunderground v.1.15,2013-01-02 05:46:00,
2013-01-02 00:52:00,29.3,11.5,29.23,N/A,-32768,0.0,0.0,47,0.00,,,0.00,0,Wunderground v.1.15,2013-01-02 05:52:00,
2013-01-02 00:58:00,29.1,11.4,29.23,N/A,-32768,0.0,0.0,47,0.00,,,0.00,0,Wunderground v.1.15,2013-01-02 05:58:00,
2013-01-02 01:03:00,29.0,11.3,29.23,N/A,-32768,0.0,0.0,47,0.00,,,0.00,0,Wunderground v.1.15,2013-01-02 06:03:00,
2013-01-02 01:09:00,29.0,10.8,29.24,N/A,-32768,0.0,0.0,46,0.00,,,0.00,0,Wunderground v.1.15,2013-01-02 06:09:00,
2013-01-02 01:14:00,28.9,10.7,29.22,N/A,-32768,0.0,0.0,46,0.00,,,0.00,0,Wunderground v.1.15,2013-01-02 06:14:00,
2013-01-02 01:20:00,28.6,9.9,29.22,N/A,-32768,0.0,0.0,45,0.00,,,0.00,0,Wunderground v.1.15,2013-01-02 06:20:00,
2013-01-02 01:26:00,28.5,9.8,29.22,N/A,-32768,0.0,0.0,45,0.00,,,0.00,0,Wunderground v.1.15,2013-01-02 06:26:00,
2013-01-02 01:32:00,28.5,9.8,29.23,N/A,-32768,0.0,0.0,45,0.00,,,0.00,0,Wunderground v.1.15,2013-01-02 06:32:00,
2013-01-02 01:37:00,28.4,9.2,29.23,N/A,-32768,0.0,0.0,44,0.00,,,0.00,0,Wunderground v.1.15,2013-01-02 06:37:00,
2013-01-02 01:43:00,28.4,9.2,29.25,N/A,-32768,0.0,0.0,44,0.00,,,0.00,0,Wunderground v.1.15,2013-01-02 06:43:00,
2013-01-02 01:49:00,28.2,9.0,29.24,N/A,-32768,0.0,0.0,44,0.00,,,0.00,0,Wunderground v.1.15,2013-01-02 06:49:00,
2013-01-02 01:54:00,28.2,9.0,29.24,N/A,-32768,0.0,0.0,44,0.00,,,0.00,0,Wunderground v.1.15,2013-01-02 06:54:00,
2013-01-02 01:59:00,28.0,8.9,29.25,N/A,-32768,0.0,0.0,44,0.00,,,0.00,0,Wunderground v.1.15,2013-01-02 06:59:00,
2013-01-02 02:04:00,28.2,9.0,29.25,N/A,-32768,0.0,0.0,44,0.00,,,0.00,0,Wunderground v.1.15,2013-01-02 07:04:00,
2013-01-02 02:09:00,27.9,9.3,29.25,N/A,-32768,0.0,0.0,45,0.00,,,0.00,0,Wunderground v.1.15,2013-01-02 07:09:00,
2013-01-02 02:14:00,27.9,9.3,29.24,N/A,-32768,0.0,0.0,45,0.00,,,0.00,0,Wunderground v.1.15,2013-01-02 07:14:00,
2013-01-02 02:19:00,27.9,9.3,29.25,N/A,-32768,0.0,0.0,45,0.00,,,0.00,0,Wunderground v.1.15,2013-01-02 07:19:00,
2013-01-02 02:24:00,27.7,9.1,29.25,N/A,-32768,0.0,0.0,45,0.00,,,0.00,0,Wunderground v.1.15,2013-01-02 07:24:00,
2013-01-02 02:29:00,27.7,9.1,29.25,N/A,-32768,0.0,0.0,45,0.00,,,0.00,0,Wunderground v.1.15,2013-01-02 07:29:00,
2013-01-02 02:34:00,27.6,9.0,29.25,N/A,-32768,0.0,0.0,45,0.00,,,0.00,0,Wunderground v.1.15,2013-01-02 07:34:00,
2013-01-02 02:39:00,27.5,8.9,29.25,N/A,-32768,0.0,0.0,45,0.00,,,0.00,0,Wunderground v.1.15,2013-01-02 07:39:00,
2013-01-02 02:44:00,27.6,9.0,29.26,N/A,-32768,0.0,0.0,45,0.00,,,0.00,0,Wunderground v.1.15,2013-01-02 07:44:00,
2013-01-02 02:49:00,27.7,9.1,29.26,N/A,-32768,0.0,0.0,45,0.00,,,0.00,0,Wunderground v.1.15,2013-01-02 07:49:00,
2013-01-02 02:54:00,27.6,9.5,29.25,N/A,-32768,0.0,0.0,46,0.00,,,0.00,0,Wunderground v.1.15,2013-01-02 07:54:00,
2013-01-02 02:59:00,27.5,9.4,29.24,N/A,-32768,0.0,0.0,46,0.00,,,0.00,0,Wunderground v.1.15,2013-01-02 07:59:00,
2013-01-02 03:04:00,27.4,9.3,29.26,N/A,-32768,0.0,0.0,46,0.00,,,0.00,0,Wunderground v.1.15,2013-01-02 08:04:00,
2013-01-02 03:09:00,27.5,9.4,29.25,N/A,-32768,0.0,0.0,46,0.00,,,0.00,0,Wunderground v.1.15,2013-01-02 08:09:00,
2013-01-02 03:14:00,27.3,9.7,29.25,N/A,-32768,0.0,0.0,47,0.00,,,0.00,0,Wunderground v.1.15,2013-01-02 08:14:00,
2013-01-02 03:20:00,27.4,9.8,29.25,N/A,-32768,0.0,0.0,47,0.00,,,0.00,0,Wunderground v.1.15,2013-01-02 08:20:00,
2013-01-02 03:25:00,27.4,9.8,29.25,N/A,-32768,0.0,0.0,47,0.00,,,0.00,0,Wunderground v.1.15,2013-01-02 08:25:00,
2013-01-02 03:30:00,27.2,9.6,29.25,N/A,-32768,0.0,0.0,47,0.00,,,0.00,0,Wunderground v.1.15,2013-01-02 08:30:00,
2013-01-02 03:35:00,27.3,9.2,29.25,N/A,-32768,0.0,0.0,46,0.00,,,0.00,0,Wunderground v.1.15,2013-01-02 08:35:00,
2013-01-02 03:40:00,27.3,9.2,29.25,N/A,-32768,0.0,0.0,46,0.00,,,0.00,0,Wunderground v.1.15,2013-01-02 08:40:00,
2013-01-02 03:45:00,27.2,9.1,29.25,N/A,-32768,0.0,0.0,46,0.00,,,0.00,0,Wunderground v.1.15,2013-01-02 08:45:00,
2013-01-02 03:50:00,27.3,9.2,29.26,N/A,-32768,0.0,0.0,46,0.00,,,0.00,0,Wunderground v.1.15,2013-01-02 08:50:00,
2013-01-02 03:55:00,27.3,9.7,29.25,N/A,-32768,0.0,0.0,47,0.00,,,0.00,0,Wunderground v.1.15,2013-01-02 08:55:00,
2013-01-02 04:00:00,27.0,9.4,29.25,N/A,-32768,0.0,0.0,47,0.00,,,0.00,0,Wunderground v.1.15,2013-01-02 09:00:00,
2013-01-02 04:05:00,26.9,9.3,29.25,N/A,-32768,0.0,0.0,47,0.00,,,0.00,0,Wunderground v.1.15,2013-01-02 09:05:00,
2013-01-02 04:10:00,26.9,9.3,29.25,N/A,-32768,0.0,0.0,47,0.00,,,0.00,0,Wunderground v.1.15,2013-01-02 09:10:00,
2013-01-02 04:15:00,26.9,9.3,29.26,N/A,-32768,0.0,0.0,47,0.00,,,0.00,0,Wunderground v.1.15,2013-01-02 09:15:00,
2013-01-02 04:20:00,26.6,9.1,29.25,N/A,-32768,0.0,0.0,47,0.00,,,0.00,0,Wunderground v.1.15,2013-01-02 09:20:00,
2013-01-02 04:25:00,26.7,9.6,29.26,N/A,-32768,0.0,0.0,48,0.00,,,0.00,0,Wunderground v.1.15,2013-01-02 09:25:00,
2013-01-02 04:30:00,26.6,9.5,29.25,N/A,-32768,0.0,0.0,48,0.00,,,0.00,0,Wunderground v.1.15,2013-01-02 09:30:00,
2013-01-02 04:35:00,26.5,9.4,29.25,N/A,-32768,0.0,0.0,48,0.00,,,0.00,0,Wunderground v.1.15,2013-01-02 09:35:00,
2013-01-02 04:40:00,26.4,9.3,29.24,N/A,-32768,0.0,0.0,48,0.00,,,0.00,0,Wunderground v.1.15,2013-01-02 09:40:00,
2013-01-02 04:45:00,26.4,9.3,29.24,N/A,-32768,0.0,0.0,48,0.00,,,0.00,0,Wunderground v.1.15,2013-01-02 09:45:00,
2013-01-02 04:50:00,26.2,8.7,29.25,N/A,-32768,0.0,0.0,47,0.00,,,0.00,0,Wunderground v.1.15,2013-01-02 09:50:00,
2013-01-02 04:55:00,26.4,8.9,29.25,N/A,-32768,0.0,0.0,47,0.00,,,0.00,0,Wunderground v.1.15,2013-01-02 09:55:00,
2013-01-02 05:00:00,26.2,8.7,29.25,N/A,-32768,0.0,0.0,47,0.00,,,0.00,0,Wunderground v.1.15,2013-01-02 10:00:00,
2013-01-02 05:05:00,26.3,8.8,29.27,N/A,-32768,0.0,0.0,47,0.00,,,0.00,0,Wunderground v.1.15,2013-01-02 10:05:00,
2013-01-02 05:10:00,26.3,8.8,29.26,N/A,-32768,0.0,0.0,47,0.00,,,0.00,0,Wunderground v.1.15,2013-01-02 10:10:00,
2013-01-02 05:15:00,26.3,8.8,29.26,N/A,-32768,0.0,0.0,47,0.00,,,0.00,0,Wunderground v.1.15,2013-01-02 10:15:00,
2013-01-02 05:20:00,26.1,8.6,29.26,N/A,-32768,0.0,0.0,47,0.00,,,0.00,0,Wunderground v.1.15,2013-01-02 10:20:00,
2013-01-02 05:25:00,26.0,8.5,29.26,N/A,-32768,0.0,0.0,47,0.00,,,0.00,0,Wunderground v.1.15,2013-01-02 10:25:00,
2013-01-02 05:30:00,25.9,8.4,29.26,N/A,-32768,0.0,0.0,47,0.00,,,0.00,0,Wunderground v.1.15,2013-01-02 10:30:00,
2013-01-02 05:35:00,25.9,8.4,29.27,N/A,-32768,0.0,0.0,47,0.00,,,0.00,0,Wunderground v.1.15,2013-01-02 10:35:00,
2013-01-02 05:40:00,25.8,8.3,29.27,N/A,-32768,0.0,0.0,47,0.00,,,0.00,0,Wunderground v.1.15,2013-01-02 10:40:00,
2013-01-02 05:45:00,25.7,8.2,29.27,N/A,-32768,0.0,0.0,47,0.00,,,0.00,0,Wunderground v.1.15,2013-01-02 10:45:00,
2013-01-02 05:50:00,25.7,8.2,29.27,N/A,-32768,0.0,0.0,47,0.00,,,0.00,0,Wunderground v.1.15,2013-01-02 10:50:00,
2013-01-02 05:55:00,25.8,8.3,29.28,N/A,-32768,0.0,0.0,47,0.00,,,0.00,0,Wunderground v.1.15,2013-01-02 10:55:00,
2013-01-02 06:00:00,25.7,8.7,29.27,N/A,-32768,0.0,0.0,48,0.00,,,0.00,0,Wunderground v.1.15,2013-01-02 11:00:00,
2013-01-02 06:05:00,25.5,8.5,29.27,N/A,-32768,0.0,0.0,48,0.00,,,0.00,0,Wunderground v.1.15,2013-01-02 11:05:00,
2013-01-02 06:10:00,25.6,8.6,29.27,N/A,-32768,0.0,0.0,48,0.00,,,0.00,0,Wunderground v.1.15,2013-01-02 11:10:00,
2013-01-02 06:15:00,25.6,8.1,29.27,N/A,-32768,0.0,0.0,47,0.00,,,0.00,0,Wunderground v.1.15,2013-01-02 11:15:00,
2013-01-02 06:20:00,25.3,7.9,29.28,N/A,-32768,0.0,0.0,47,0.00,,,0.00,0,Wunderground v.1.15,2013-01-02 11:20:00,
2013-01-02 06:25:00,25.4,7.9,29.28,N/A,-32768,0.0,0.0,47,0.00,,,0.00,0,Wunderground v.1.15,2013-01-02 11:25:00,
2013-01-02 06:30:00,25.2,7.8,29.28,N/A,-32768,0.0,0.0,47,0.00,,,0.00,0,Wunderground v.1.15,2013-01-02 11:30:00,
2013-01-02 06:36:00,25.2,8.2,29.28,N/A,-32768,0.0,0.0,48,0.00,,,0.00,0,Wunderground v.1.15,2013-01-02 11:36:00,
2013-01-02 06:41:00,25.2,8.2,29.28,N/A,-32768,0.0,0.0,48,0.00,,,0.00,0,Wunderground v.1.15,2013-01-02 11:41:00,
2013-01-02 06:46:00,25.0,7.6,29.28,N/A,-32768,0.0,0.0,47,0.00,,,0.00,0,Wunderground v.1.15,2013-01-02 11:46:00,
2013-01-02 06:51:00,25.0,7.6,29.28,N/A,-32768,0.0,0.0,47,0.00,,,0.00,0,Wunderground v.1.15,2013-01-02 11:51:00,
2013-01-02 06:56:00,24.9,7.0,29.28,N/A,-32768,0.0,0.0,46,0.00,,,0.00,0,Wunderground v.1.15,2013-01-02 11:56:00,
2013-01-02 07:01:00,25.0,7.1,29.28,N/A,-32768,0.0,0.0,46,0.00,,,0.00,0,Wunderground v.1.15,2013-01-02 12:01:00,
2013-01-02 07:06:00,24.8,6.9,29.29,N/A,-32768,0.0,0.0,46,0.00,,,0.00,0,Wunderground v.1.15,2013-01-02 12:06:00,
2013-01-02 07:11:00,24.8,6.9,29.29,N/A,-32768,0.0,0.0,46,0.00,,,0.00,0,Wunderground v.1.15,2013-01-02 12:11:00,
2013-01-02 07:16:00,25.0,7.1,29.29,N/A,-32768,0.0,0.0,46,0.00,,,0.00,0,Wunderground v.1.15,2013-01-02 12:16:00,
2013-01-02 07:21:00,25.0,7.1,29.29,N/A,-32768,0.0,0.0,46,0.00,,,0.00,0,Wunderground v.1.15,2013-01-02 12:21:00,
2013-01-02 07:26:00,24.7,6.8,29.29,N/A,-32768,0.0,0.0,46,0.00,,,0.00,0,Wunderground v.1.15,2013-01-02 12:26:00,
2013-01-02 07:31:00,24.7,6.8,29.29,N/A,-32768,0.0,0.0,46,0.00,,,0.00,0,Wunderground v.1.15,2013-01-02 12:31:00,
2013-01-02 07:36:00,24.7,6.8,29.29,N/A,-32768,0.0,0.0,46,0.00,,,0.00,0,Wunderground v.1.15,2013-01-02 12:36:00,
2013-01-02 07:41:00,24.9,7.5,29.30,N/A,-32768,0.0,0.0,47,0.00,,,0.00,0,Wunderground v.1.15,2013-01-02 12:41:00,
2013-01-02 07:46:00,24.7,7.8,29.30,N/A,-32768,0.0,0.0,48,0.00,,,0.00,0,Wunderground v.1.15,2013-01-02 12:46:00,
2013-01-02 07:51:00,24.6,7.7,29.30,N/A,-32768,0.0,0.0,48,0.00,,,0.00,0,Wunderground v.1.15,2013-01-02 12:51:00,
2013-01-02 07:56:00,24.6,7.7,29.30,N/A,-32768,0.0,0.0,48,0.00,,,0.00,0,Wunderground v.1.15,2013-01-02 12:56:00,
2013-01-02 08:01:00,24.7,7.8,29.30,N/A,-32768,0.0,0.0,48,0.00,,,0.00,0,Wunderground v.1.15,2013-01-02 13:01:00,
2013-01-02 08:07:00,24.7,7.8,29.30,N/A,-32768,0.0,0.0,48,0.00,,,0.00,0,Wunderground v.1.15,2013-01-02 13:07:00,
2013-01-02 08:12:00,24.8,7.9,29.30,N/A,-32768,0.0,0.0,48,0.00,,,0.00,0,Wunderground v.1.15,2013-01-02 13:12:00,
2013-01-02 08:17:00,25.0,8.0,29.30,N/A,-32768,0.0,0.0,48,0.00,,,0.00,0,Wunderground v.1.15,2013-01-02 13:17:00,
2013-01-02 08:22:00,25.0,8.0,29.30,N/A,-32768,0.0,0.0,48,0.00,,,0.00,0,Wunderground v.1.15,2013-01-02 13:22:00,
2013-01-02 08:27:00,25.1,8.1,29.31,N/A,-32768,0.0,0.0,48,0.00,,,0.00,0,Wunderground v.1.15,2013-01-02 13:27:00,
2013-01-02 08:32:00,25.4,8.4,29.31,N/A,-32768,0.0,0.0,48,0.00,,,0.00,0,Wunderground v.1.15,2013-01-02 13:32:00,
2013-01-02 08:37:00,25.4,8.4,29.32,N/A,-32768,0.0,0.0,48,0.00,,,0.00,0,Wunderground v.1.15,2013-01-02 13:37:00,
2013-01-02 08:42:00,25.7,8.7,29.32,N/A,-32768,0.0,0.0,48,0.00,,,0.00,0,Wunderground v.1.15,2013-01-02 13:42:00,
2013-01-02 08:47:00,25.8,8.8,29.32,N/A,-32768,0.0,0.0,48,0.00,,,0.00,0,Wunderground v.1.15,2013-01-02 13:47:00,
2013-01-02 08:52:00,25.7,8.7,29.33,N/A,-32768,0.0,0.0,48,0.00,,,0.00,0,Wunderground v.1.15,2013-01-02 13:52:00,
2013-01-02 08:57:00,25.9,8.4,29.33,N/A,-32768,0.0,0.0,47,0.00,,,0.00,0,Wunderground v.1.15,2013-01-02 13:57:00,
2013-01-02 09:02:00,26.1,8.6,29.32,N/A,-32768,0.0,0.0,47,0.00,,,0.00,0,Wunderground v.1.15,2013-01-02 14:02:00,
2013-01-02 09:07:00,26.2,8.2,29.32,N/A,-32768,0.0,0.0,46,0.00,,,0.00,0,Wunderground v.1.15,2013-01-02 14:07:00,
2013-01-02 09:12:00,26.2,8.2,29.32,N/A,-32768,0.0,0.0,46,0.00,,,0.00,0,Wunderground v.1.15,2013-01-02 14:12:00,
2013-01-02 09:17:00,26.4,8.4,29.32,N/A,-32768,0.0,0.0,46,0.00,,,0.00,0,Wunderground v.1.15,2013-01-02 14:17:00,
2013-01-02 09:22:00,26.6,8.1,29.32,N/A,-32768,0.0,0.0,45,0.00,,,0.00,0,Wunderground v.1.15,2013-01-02 14:22:00,
2013-01-02 09:27:00,26.8,8.8,29.33,N/A,-32768,0.0,0.0,46,0.00,,,0.00,0,Wunderground v.1.15,2013-01-02 14:27:00,
2013-01-02 09:32:00,27.0,8.5,29.33,N/A,-32768,0.0,0.0,45,0.00,,,0.00,0,Wunderground v.1.15,2013-01-02 14:32:00,
2013-01-02 09:37:00,27.0,8.5,29.33,N/A,-32768,0.0,0.0,45,0.00,,,0.00,0,Wunderground v.1.15,2013-01-02 14:37:00,
2013-01-02 09:42:00,27.0,8.5,29.34,N/A,-32768,0.0,0.0,45,0.00,,,0.00,0,Wunderground v.1.15,2013-01-02 14:42:00,
2013-01-02 09:47:00,27.3,8.7,29.34,N/A,-32768,0.0,0.0,45,0.00,,,0.00,0,Wunderground v.1.15,2013-01-02 14:47:00,
2013-01-02 09:52:00,27.3,8.2,29.34,N/A,-32768,0.0,0.0,44,0.00,,,0.00,0,Wunderground v.1.15,2013-01-02 14:52:00,
2013-01-02 09:57:00,27.7,8.6,29.34,N/A,-32768,0.0,0.0,44,0.00,,,0.00,0,Wunderground v.1.15,2013-01-02 14:57:00,
2013-01-02 10:02:00,28.1,9.0,29.34,N/A,-32768,0.0,0.0,44,0.00,,,0.00,0,Wunderground v.1.15,2013-01-02 15:02:00,
2013-01-02 10:07:00,28.3,8.6,29.34,N/A,-32768,0.0,0.0,43,0.00,,,0.00,0,Wunderground v.1.15,2013-01-02 15:07:00,
2013-01-02 10:12:00,28.5,8.8,29.34,N/A,-32768,0.0,0.0,43,0.00,,,0.00,0,Wunderground v.1.15,2013-01-02 15:12:00,
2013-01-02 10:17:00,28.5,8.8,29.34,N/A,-32768,0.0,0.0,43,0.00,,,0.00,0,Wunderground v.1.15,2013-01-02 15:17:00,
2013-01-02 10:22:00,28.9,9.2,29.34,N/A,-32768,0.0,0.0,43,0.00,,,0.00,0,Wunderground v.1.15,2013-01-02 15:22:00,
2013-01-02 10:27:00,29.0,9.3,29.34,N/A,-32768,0.0,0.0,43,0.00,,,0.00,0,Wunderground v.1.15,2013-01-02 15:27:00,
2013-01-02 10:32:00,29.4,9.1,29.34,N/A,-32768,0.0,0.0,42,0.00,,,0.00,0,Wunderground v.1.15,2013-01-02 15:32:00,
2013-01-02 10:37:00,29.1,8.8,29.34,N/A,-32768,0.0,0.0,42,0.00,,,0.00,0,Wunderground v.1.15,2013-01-02 15:37:00,
2013-01-02 10:42:00,29.2,8.9,29.34,N/A,-32768,0.0,0.0,42,0.00,,,0.00,0,Wunderground v.1.15,2013-01-02 15:42:00,
2013-01-02 10:47:00,29.7,9.4,29.33,N/A,-32768,0.0,0.0,42,0.00,,,0.00,0,Wunderground v.1.15,2013-01-02 15:47:00,
2013-01-02 10:52:00,29.6,9.3,29.33,N/A,-32768,0.0,0.0,42,0.00,,,0.00,0,Wunderground v.1.15,2013-01-02 15:52:00,
2013-01-02 10:57:00,29.9,9.0,29.34,N/A,-32768,0.0,0.0,41,0.00,,,0.00,0,Wunderground v.1.15,2013-01-02 15:57:00,
2013-01-02 11:02:00,30.3,9.4,29.33,N/A,-32768,0.0,0.0,41,0.00,,,0.00,0,Wunderground v.1.15,2013-01-02 16:02:00,
2013-01-02 11:07:00,30.6,9.7,29.32,N/A,-32768,0.0,0.0,41,0.00,,,0.00,0,Wunderground v.1.15,2013-01-02 16:07:00,
2013-01-02 11:12:00,30.9,9.9,29.32,N/A,-32768,0.0,0.0,41,0.00,,,0.00,0,Wunderground v.1.15,2013-01-02 16:12:00,
2013-01-02 11:17:00,31.0,10.0,29.32,N/A,-32768,0.0,0.0,41,0.00,,,0.00,0,Wunderground v.1.15,2013-01-02 16:17:00,
2013-01-02 11:22:00,31.0,9.5,29.32,N/A,-32768,0.0,0.0,40,0.00,,,0.00,0,Wunderground v.1.15,2013-01-02 16:22:00,
2013-01-02 11:27:00,31.9,10.3,29.31,N/A,-32768,0.0,0.0,40,0.00,,,0.00,0,Wunderground v.1.15,2013-01-02 16:27:00,
2013-01-02 11:32:00,32.3,10.6,29.31,N/A,-32768,0.0,0.0,40,0.00,,,0.00,0,Wunderground v.1.15,2013-01-02 16:32:00,
2013-01-02 11:37:00,32.6,10.3,29.30,N/A,-32768,0.0,0.0,39,0.00,,,0.00,0,Wunderground v.1.15,2013-01-02 16:37:00,
2013-01-02 11:42:00,32.5,10.3,29.30,N/A,-32768,0.0,0.0,39,0.00,,,0.00,0,Wunderground v.1.15,2013-01-02 16:42:00,
2013-01-02 11:47:00,32.7,9.8,29.30,N/A,-32768,0.0,0.0,38,0.00,,,0.00,0,Wunderground v.1.15,2013-01-02 16:47:00,
2013-01-02 11:52:00,32.7,9.8,29.30,N/A,-32768,0.0,0.0,38,0.00,,,0.00,0,Wunderground v.1.15,2013-01-02 16:52:00,
2013-01-02 11:57:00,32.9,10.0,29.29,N/A,-32768,0.0,0.0,38,0.00,,,0.00,0,Wunderground v.1.15,2013-01-02 16:57:00,
2013-01-02 12:02:00,32.6,10.3,29.29,N/A,-32768,0.0,0.0,39,0.00,,,0.00,0,Wunderground v.1.15,2013-01-02 17:02:00,
2013-01-02 12:08:00,32.5,9.7,29.29,N/A,-32768,0.0,0.0,38,0.00,,,0.00,0,Wunderground v.1.15,2013-01-02 17:08:00,
2013-01-02 12:13:00,32.2,10.0,29.29,N/A,-32768,0.0,0.0,39,0.00,,,0.00,0,Wunderground v.1.15,2013-01-02 17:13:00,
2013-01-02 12:18:00,32.3,10.1,29.29,N/A,-32768,0.0,0.0,39,0.00,,,0.00,0,Wunderground v.1.15,2013-01-02 17:18:00,
2013-01-02 12:23:00,32.5,9.7,29.29,N/A,-32768,0.0,0.0,38,0.00,,,0.00,0,Wunderground v.1.15,2013-01-02 17:23:00,
2013-01-02 12:28:00,33.0,10.7,29.28,N/A,-32768,0.0,0.0,39,0.00,,,0.00,0,Wunderground v.1.15,2013-01-02 17:28:00,
2013-01-02 12:33:00,33.1,10.2,29.29,N/A,-32768,0.0,0.0,38,0.00,,,0.00,0,Wunderground v.1.15,2013-01-02 17:33:00,
2013-01-02 12:38:00,33.0,10.7,29.28,N/A,-32768,0.0,0.0,39,0.00,,,0.00,0,Wunderground v.1.15,2013-01-02 17:38:00,
2013-01-02 12:43:00,33.1,10.8,29.28,N/A,-32768,0.0,0.0,39,0.00,,,0.00,0,Wunderground v.1.15,2013-01-02 17:43:00,
2013-01-02 12:48:00,33.3,11.0,29.28,N/A,-32768,0.0,0.0,39,0.00,,,0.00,0,Wunderground v.1.15,2013-01-02 17:48:00,
2013-01-02 12:52:00,33.5,11.2,29.28,N/A,-32768,0.0,0.0,39,0.00,,,0.00,0,Wunderground v.1.15,2013-01-02 17:52:00,
2013-01-02 12:57:00,33.8,10.8,29.27,N/A,-32768,0.0,0.0,38,0.00,,,0.00,0,Wunderground v.1.15,2013-01-02 17:57:00,
2013-01-02 13:03:00,33.5,11.2,29.28,N/A,-32768,0.0,0.0,39,0.00,,,0.00,0,Wunderground v.1.15,2013-01-02 18:03:00,
2013-01-02 13:08:00,33.6,10.7,29.28,N/A,-32768,0.0,0.0,38,0.00,,,0.00,0,Wunderground v.1.15,2013-01-02 18:08:00,
2013-01-02 13:14:00,34.2,11.2,29.29,N/A,-32768,0.0,0.0,38,0.00,,,0.00,0,Wunderground v.1.15,2013-01-02 18:14:00,
2013-01-02 13:19:00,34.5,11.5,29.27,N/A,-32768,0.0,0.0,38,0.00,,,0.00,0,Wunderground v.1.15,2013-01-02 18:19:00,
2013-01-02 13:24:00,34.4,12.0,29.28,N/A,-32768,0.0,0.0,39,0.00,,,0.00,0,Wunderground v.1.15,2013-01-02 18:24:00,
2013-01-02 13:29:00,34.4,11.4,29.28,N/A,-32768,0.0,0.0,38,0.00,,,0.00,0,Wunderground v.1.15,2013-01-02 18:29:00,
2013-01-02 13:34:00,34.2,11.2,29.28,N/A,-32768,0.0,0.0,38,0.00,,,0.00,0,Wunderground v.1.15,2013-01-02 18:34:00,
2013-01-02 13:39:00,34.1,11.7,29.28,N/A,-32768,0.0,0.0,39,0.00,,,0.00,0,Wunderground v.1.15,2013-01-02 18:39:00,
2013-01-02 13:44:00,33.9,11.5,29.28,N/A,-32768,0.0,0.0,39,0.00,,,0.00,0,Wunderground v.1.15,2013-01-02 18:44:00,
2013-01-02 13:49:00,34.5,12.6,29.28,N/A,-32768,0.0,0.0,40,0.00,,,0.00,0,Wunderground v.1.15,2013-01-02 18:49:00,
2013-01-02 13:54:00,35.2,12.1,29.28,N/A,-32768,0.0,0.0,38,0.00,,,0.00,0,Wunderground v.1.15,2013-01-02 18:54:00,
2013-01-02 13:59:00,34.8,11.7,29.29,N/A,-32768,0.0,0.0,38,0.00,,,0.00,0,Wunderground v.1.15,2013-01-02 18:59:00,
2013-01-02 14:04:00,34.5,12.1,29.29,N/A,-32768,0.0,0.0,39,0.00,,,0.00,0,Wunderground v.1.15,2013-01-02 19:04:00,
2013-01-02 14:09:00,34.8,12.3,29.29,N/A,-32768,0.0,0.0,39,0.00,,,0.00,0,Wunderground v.1.15,2013-01-02 19:09:00,
2013-01-02 14:14:00,34.7,11.6,29.30,N/A,-32768,0.0,0.0,38,0.00,,,0.00,0,Wunderground v.1.15,2013-01-02 19:14:00,
2013-01-02 14:20:00,34.5,11.5,29.29,N/A,-32768,0.0,0.0,38,0.00,,,0.00,0,Wunderground v.1.15,2013-01-02 19:20:00,
2013-01-02 14:25:00,34.9,12.4,29.29,N/A,-32768,0.0,0.0,39,0.00,,,0.00,0,Wunderground v.1.15,2013-01-02 19:25:00,
2013-01-02 14:30:00,35.2,12.1,29.29,N/A,-32768,0.0,0.0,38,0.00,,,0.00,0,Wunderground v.1.15,2013-01-02 19:30:00,
2013-01-02 14:35:00,34.5,11.5,29.29,N/A,-32768,0.0,0.0,38,0.00,,,0.00,0,Wunderground v.1.15,2013-01-02 19:35:00,
2013-01-02 14:40:00,34.7,11.6,29.29,N/A,-32768,0.0,0.0,38,0.00,,,0.00,0,Wunderground v.1.15,2013-01-02 19:40:00,
2013-01-02 14:45:00,34.8,11.7,29.30,N/A,-32768,0.0,0.0,38,0.00,,,0.00,0,Wunderground v.1.15,2013-01-02 19:45:00,
2013-01-02 14:50:00,35.0,12.5,29.30,N/A,-32768,0.0,0.0,39,0.00,,,0.00,0,Wunderground v.1.15,2013-01-02 19:50:00,
2013-01-02 14:55:00,34.8,11.7,29.30,N/A,-32768,0.0,0.0,38,0.00,,,0.00,0,Wunderground v.1.15,2013-01-02 19:55:00,
2013-01-02 15:00:00,35.2,12.7,29.30,N/A,-32768,0.0,0.0,39,0.00,,,0.00,0,Wunderground v.1.15,2013-01-02 20:00:00,
2013-01-02 15:05:00,35.0,11.9,29.30,N/A,-32768,0.0,0.0,38,0.00,,,0.00,0,Wunderground v.1.15,2013-01-02 20:05:00,
2013-01-02 15:10:00,34.7,12.2,29.30,N/A,-32768,0.0,0.0,39,0.00,,,0.00,0,Wunderground v.1.15,2013-01-02 20:10:00,
2013-01-02 15:15:00,34.5,12.1,29.30,N/A,-32768,0.0,0.0,39,0.00,,,0.00,0,Wunderground v.1.15,2013-01-02 20:15:00,
2013-01-02 15:20:00,34.6,12.1,29.30,N/A,-32768,0.0,0.0,39,0.00,,,0.00,0,Wunderground v.1.15,2013-01-02 20:20:00,
2013-01-02 15:25:00,34.4,12.0,29.30,N/A,-32768,0.0,0.0,39,0.00,,,0.00,0,Wunderground v.1.15,2013-01-02 20:25:00,
2013-01-02 15:30:00,34.6,12.1,29.31,N/A,-32768,0.0,0.0,39,0.00,,,0.00,0,Wunderground v.1.15,2013-01-02 20:30:00,
2013-01-02 15:35:00,34.5,12.6,29.31,N/A,-32768,0.0,0.0,40,0.00,,,0.00,0,Wunderground v.1.15,2013-01-02 20:35:00,
2013-01-02 15:40:00,34.1,11.7,29.31,N/A,-32768,0.0,0.0,39,0.00,,,0.00,0,Wunderground v.1.15,2013-01-02 20:40:00,
2013-01-02 15:45:00,33.8,12.0,29.31,N/A,-32768,0.0,0.0,40,0.00,,,0.00,0,Wunderground v.1.15,2013-01-02 20:45:00,
2013-01-02 15:50:00,33.7,11.9,29.32,N/A,-32768,0.0,0.0,40,0.00,,,0.00,0,Wunderground v.1.15,2013-01-02 20:50:00,
2013-01-02 15:55:00,33.5,11.7,29.32,N/A,-32768,0.0,0.0,40,0.00,,,0.00,0,Wunderground v.1.15,2013-01-02 20:55:00,
2013-01-02 16:00:00,33.1,11.4,29.32,N/A,-32768,0.0,0.0,40,0.00,,,0.00,0,Wunderground v.1.15,2013-01-02 21:00:00,
2013-01-02 16:05:00,33.0,11.3,29.32,N/A,-32768,0.0,0.0,40,0.00,,,0.00,0,Wunderground v.1.15,2013-01-02 21:05:00,
2013-01-02 16:10:00,32.5,10.8,29.32,N/A,-32768,0.0,0.0,40,0.00,,,0.00,0,Wunderground v.1.15,2013-01-02 21:10:00,
2013-01-02 16:15:00,32.5,10.8,29.33,N/A,-32768,0.0,0.0,40,0.00,,,0.00,0,Wunderground v.1.15,2013-01-02 21:15:00,
2013-01-02 16:20:00,32.1,11.0,29.33,N/A,-32768,0.0,0.0,41,0.00,,,0.00,0,Wunderground v.1.15,2013-01-02 21:20:00,
2013-01-02 16:25:00,32.1,11.0,29.33,N/A,-32768,0.0,0.0,41,0.00,,,0.00,0,Wunderground v.1.15,2013-01-02 21:25:00,
2013-01-02 16:30:00,31.9,11.4,29.33,N/A,-32768,0.0,0.0,42,0.00,,,0.00,0,Wunderground v.1.15,2013-01-02 21:30:00,
2013-01-02 16:35:00,31.6,11.1,29.33,N/A,-32768,0.0,0.0,42,0.00,,,0.00,0,Wunderground v.1.15,2013-01-02 21:35:00,
2013-01-02 16:40:00,31.5,11.0,29.33,N/A,-32768,0.0,0.0,42,0.00,,,0.00,0,Wunderground v.1.15,2013-01-02 21:40:00,
2013-01-02 16:45:00,31.4,11.5,29.34,N/A,-32768,0.0,0.0,43,0.00,,,0.00,0,Wunderground v.1.15,2013-01-02 21:45:00,
2013-01-02 16:50:00,31.0,11.1,29.34,N/A,-32768,0.0,0.0,43,0.00,,,0.00,0,Wunderground v.1.15,2013-01-02 21:50:00,
2013-01-02 16:55:00,30.8,10.9,29.34,N/A,-32768,0.0,0.0,43,0.00,,,0.00,0,Wunderground v.1.15,2013-01-02 21:55:00,
2013-01-02 17:00:00,30.6,11.2,29.34,N/A,-32768,0.0,0.0,44,0.00,,,0.00,0,Wunderground v.1.15,2013-01-02 22:00:00,
2013-01-02 17:05:00,30.6,11.2,29.35,N/A,-32768,0.0,0.0,44,0.00,,,0.00,0,Wunderground v.1.15,2013-01-02 22:05:00,
2013-01-02 17:10:00,30.4,11.1,29.35,N/A,-32768,0.0,0.0,44,0.00,,,0.00,0,Wunderground v.1.15,2013-01-02 22:10:00,
2013-01-02 17:15:00,30.2,10.9,29.35,N/A,-32768,0.0,0.0,44,0.00,,,0.00,0,Wunderground v.1.15,2013-01-02 22:15:00,
2013-01-02 17:20:00,30.0,10.7,29.36,N/A,-32768,0.0,0.0,44,0.00,,,0.00,0,Wunderground v.1.15,2013-01-02 22:20:00,
2013-01-02 17:25:00,30.1,10.8,29.36,N/A,-32768,0.0,0.0,44,0.00,,,0.00,0,Wunderground v.1.15,2013-01-02 22:25:00,
2013-01-02 17:31:00,30.2,10.9,29.36,N/A,-32768,0.0,0.0,44,0.00,,,0.00,0,Wunderground v.1.15,2013-01-02 22:31:00,
2013-01-02 17:36:00,29.9,10.6,29.36,N/A,-32768,0.0,0.0,44,0.00,,,0.00,0,Wunderground v.1.15,2013-01-02 22:36:00,
2013-01-02 17:41:00,29.7,10.9,29.37,N/A,-32768,0.0,0.0,45,0.00,,,0.00,0,Wunderground v.1.15,2013-01-02 22:41:00,
2013-01-02 17:46:00,29.6,10.8,29.37,N/A,-32768,0.0,0.0,45,0.00,,,0.00,0,Wunderground v.1.15,2013-01-02 22:46:00,
2013-01-02 17:51:00,29.6,10.8,29.37,N/A,-32768,0.0,0.0,45,0.00,,,0.00,0,Wunderground v.1.15,2013-01-02 22:51:00,
2013-01-02 17:56:00,29.4,10.6,29.37,N/A,-32768,0.0,0.0,45,0.00,,,0.00,0,Wunderground v.1.15,2013-01-02 22:56:00,
2013-01-02 18:01:00,29.4,10.6,29.37,N/A,-32768,0.0,0.0,45,0.00,,,0.00,0,Wunderground v.1.15,2013-01-02 23:01:00,
2013-01-02 18:06:00,29.4,10.6,29.37,N/A,-32768,0.0,0.0,45,0.00,,,0.00,0,Wunderground v.1.15,2013-01-02 23:06:00,
2013-01-02 18:11:00,29.1,10.9,29.37,N/A,-32768,0.0,0.0,46,0.00,,,0.00,0,Wunderground v.1.15,2013-01-02 23:11:00,
2013-01-02 18:16:00,28.9,10.7,29.38,N/A,-32768,0.0,0.0,46,0.00,,,0.00,0,Wunderground v.1.15,2013-01-02 23:16:00,
2013-01-02 18:21:00,28.5,10.8,29.38,N/A,-32768,0.0,0.0,47,0.00,,,0.00,0,Wunderground v.1.15,2013-01-02 23:21:00,
2013-01-02 18:26:00,28.4,11.2,29.38,N/A,-32768,0.0,0.0,48,0.00,,,0.00,0,Wunderground v.1.15,2013-01-02 23:26:00,
2013-01-02 18:31:00,28.2,11.0,29.38,N/A,-32768,0.0,0.0,48,0.00,,,0.00,0,Wunderground v.1.15,2013-01-02 23:31:00,
2013-01-02 18:36:00,28.0,10.8,29.38,N/A,-32768,0.0,0.0,48,0.00,,,0.00,0,Wunderground v.1.15,2013-01-02 23:36:00,
2013-01-02 18:41:00,27.9,11.2,29.38,N/A,-32768,0.0,0.0,49,0.00,,,0.00,0,Wunderground v.1.15,2013-01-02 23:41:00,
2013-01-02 18:46:00,27.6,10.9,29.38,N/A,-32768,0.0,0.0,49,0.00,,,0.00,0,Wunderground v.1.15,2013-01-02 23:46:00,
2013-01-02 18:51:00,27.2,11.0,29.38,N/A,-32768,0.0,0.0,50,0.00,,,0.00,0,Wunderground v.1.15,2013-01-02 23:51:00,
2013-01-02 18:56:00,27.0,10.8,29.39,N/A,-32768,0.0,0.0,50,0.00,,,0.00,0,Wunderground v.1.15,2013-01-02 23:56:00,
2013-01-02 19:01:00,26.8,11.1,29.38,N/A,-32768,0.0,0.0,51,0.00,,,0.00,0,Wunderground v.1.15,2013-01-03 00:01:00,
2013-01-02 19:06:00,26.5,10.8,29.39,N/A,-32768,0.0,0.0,51,0.00,,,0.00,0,Wunderground v.1.15,2013-01-03 00:06:00,
2013-01-02 19:11:00,26.7,11.8,29.39,N/A,-32768,0.0,0.0,53,0.00,,,0.00,0,Wunderground v.1.15,2013-01-03 00:11:00,
2013-01-02 19:16:00,26.3,11.5,29.39,N/A,-32768,0.0,0.0,53,0.00,,,0.00,0,Wunderground v.1.15,2013-01-03 00:16:00,
2013-01-02 19:21:00,26.3,11.5,29.39,N/A,-32768,0.0,0.0,53,0.00,,,0.00,0,Wunderground v.1.15,2013-01-03 00:21:00,
2013-01-02 19:26:00,26.2,11.4,29.39,N/A,-32768,0.0,0.0,53,0.00,,,0.00,0,Wunderground v.1.15,2013-01-03 00:26:00,
2013-01-02 19:31:00,26.1,11.3,29.39,N/A,-32768,0.0,0.0,53,0.00,,,0.00,0,Wunderground v.1.15,2013-01-03 00:31:00,
2013-01-02 19:36:00,25.8,11.0,29.39,N/A,-32768,0.0,0.0,53,0.00,,,0.00,0,Wunderground v.1.15,2013-01-03 00:36:00,
2013-01-02 19:41:00,25.5,11.1,29.40,N/A,-32768,0.0,0.0,54,0.00,,,0.00,0,Wunderground v.1.15,2013-01-03 00:41:00,
2013-01-02 19:46:00,25.4,11.0,29.39,N/A,-32768,0.0,0.0,54,0.00,,,0.00,0,Wunderground v.1.15,2013-01-03 00:46:00,
2013-01-02 19:51:00,25.3,11.0,29.39,N/A,-32768,0.0,0.0,54,0.00,,,0.00,0,Wunderground v.1.15,2013-01-03 00:51:00,
2013-01-02 19:56:00,25.3,11.4,29.39,N/A,-32768,0.0,0.0,55,0.00,,,0.00,0,Wunderground v.1.15,2013-01-03 00:56:00,
2013-01-02 20:01:00,25.1,11.2,29.39,N/A,-32768,0.0,0.0,55,0.00,,,0.00,0,Wunderground v.1.15,2013-01-03 01:01:00,
2013-01-02 20:06:00,25.1,11.6,29.39,N/A,-32768,0.0,0.0,56,0.00,,,0.00,0,Wunderground v.1.15,2013-01-03 01:06:00,
2013-01-02 20:11:00,25.0,11.1,29.39,N/A,-32768,0.0,0.0,55,0.00,,,0.00,0,Wunderground v.1.15,2013-01-03 01:11:00,
2013-01-02 20:16:00,24.6,11.1,29.38,N/A,-32768,0.0,0.0,56,0.00,,,0.00,0,Wunderground v.1.15,2013-01-03 01:16:00,
2013-01-02 20:21:00,24.8,11.3,29.39,N/A,-32768,0.0,0.0,56,0.00,,,0.00,0,Wunderground v.1.15,2013-01-03 01:21:00,
2013-01-02 20:26:00,24.5,11.4,29.39,N/A,-32768,0.0,0.0,57,0.00,,,0.00,0,Wunderground v.1.15,2013-01-03 01:26:00,
2013-01-02 20:31:00,24.5,11.4,29.38,N/A,-32768,0.0,0.0,57,0.00,,,0.00,0,Wunderground v.1.15,2013-01-03 01:31:00,
2013-01-02 20:36:00,24.5,11.4,29.39,N/A,-32768,0.0,0.0,57,0.00,,,0.00,0,Wunderground v.1.15,2013-01-03 01:36:00,
2013-01-02 20:41:00,24.4,11.3,29.40,N/A,-32768,0.0,0.0,57,0.00,,,0.00,0,Wunderground v.1.15,2013-01-03 01:41:00,
2013-01-02 20:46:00,24.5,11.4,29.40,N/A,-32768,0.0,0.0,57,0.00,,,0.00,0,Wunderground v.1.15,2013-01-03 01:46:00,
2013-01-02 20:51:00,24.3,11.2,29.40,N/A,-32768,0.0,0.0,57,0.00,,,0.00,0,Wunderground v.1.15,2013-01-03 01:51:00,
2013-01-02 20:56:00,24.3,11.2,29.40,N/A,-32768,0.0,0.0,57,0.00,,,0.00,0,Wunderground v.1.15,2013-01-03 01:56:00,
2013-01-02 21:01:00,24.6,11.5,29.40,N/A,-32768,0.0,0.0,57,0.00,,,0.00,0,Wunderground v.1.15,2013-01-03 02:01:00,
2013-01-02 21:06:00,25.1,12.0,29.40,N/A,-32768,0.0,0.0,57,0.00,,,0.00,0,Wunderground v.1.15,2013-01-03 02:06:00,
2013-01-02 21:12:00,25.4,11.9,29.40,N/A,-32768,0.0,0.0,56,0.00,,,0.00,0,Wunderground v.1.15,2013-01-03 02:12:00,
2013-01-02 21:17:00,25.4,11.9,29.40,N/A,-32768,0.0,0.0,56,0.00,,,0.00,0,Wunderground v.1.15,2013-01-03 02:17:00,
2013-01-02 21:22:00,25.3,11.8,29.39,N/A,-32768,0.0,0.0,56,0.00,,,0.00,0,Wunderground v.1.15,2013-01-03 02:22:00,
2013-01-02 21:27:00,25.3,11.8,29.39,N/A,-32768,0.0,0.0,56,0.00,,,0.00,0,Wunderground v.1.15,2013-01-03 02:27:00,
2013-01-02 21:32:00,25.1,11.6,29.40,N/A,-32768,0.0,0.0,56,0.00,,,0.00,0,Wunderground v.1.15,2013-01-03 02:32:00,
2013-01-02 21:37:00,24.9,11.4,29.40,N/A,-32768,0.0,0.0,56,0.00,,,0.00,0,Wunderground v.1.15,2013-01-03 02:37:00,
2013-01-02 21:42:00,24.9,11.4,29.40,N/A,-32768,0.0,0.0,56,0.00,,,0.00,0,Wunderground v.1.15,2013-01-03 02:42:00,
2013-01-02 21:47:00,24.8,11.3,29.40,N/A,-32768,0.0,0.0,56,0.00,,,0.00,0,Wunderground v.1.15,2013-01-03 02:47:00,
2013-01-02 21:52:00,24.9,11.4,29.40,N/A,-32768,0.0,0.0,56,0.00,,,0.00,0,Wunderground v.1.15,2013-01-03 02:52:00,
2013-01-02 21:57:00,25.1,11.6,29.40,N/A,-32768,0.0,0.0,56,0.00,,,0.00,0,Wunderground v.1.15,2013-01-03 02:57:00,
2013-01-02 22:02:00,24.9,11.4,29.40,N/A,-32768,0.0,0.0,56,0.00,,,0.00,0,Wunderground v.1.15,2013-01-03 03:02:00,
2013-01-02 22:07:00,24.9,11.4,29.41,N/A,-32768,0.0,0.0,56,0.00,,,0.00,0,Wunderground v.1.15,2013-01-03 03:07:00,
2013-01-02 22:12:00,24.7,11.2,29.40,N/A,-32768,0.0,0.0,56,0.00,,,0.00,0,Wunderground v.1.15,2013-01-03 03:12:00,
2013-01-02 22:17:00,24.9,11.8,29.41,N/A,-32768,0.0,0.0,57,0.00,,,0.00,0,Wunderground v.1.15,2013-01-03 03:17:00,
2013-01-02 22:22:00,25.0,11.5,29.41,N/A,-32768,0.0,0.0,56,0.00,,,0.00,0,Wunderground v.1.15,2013-01-03 03:22:00,
2013-01-02 22:27:00,25.2,11.7,29.41,N/A,-32768,0.0,0.0,56,0.00,,,0.00,0,Wunderground v.1.15,2013-01-03 03:27:00,
2013-01-02 22:32:00,25.4,12.3,29.42,N/A,-32768,0.0,0.0,57,0.00,,,0.00,0,Wunderground v.1.15,2013-01-03 03:32:00,
2013-01-02 22:38:00,25.1,12.0,29.42,N/A,-32768,0.0,0.0,57,0.00,,,0.00,0,Wunderground v.1.15,2013-01-03 03:38:00,
2013-01-02 22:43:00,25.3,12.2,29.42,N/A,-32768,0.0,0.0,57,0.00,,,0.00,0,Wunderground v.1.15,2013-01-03 03:43:00,
2013-01-02 22:48:00,25.2,12.1,29.42,N/A,-32768,0.0,0.0,57,0.00,,,0.00,0,Wunderground v.1.15,2013-01-03 03:48:00,
2013-01-02 22:53:00,25.5,12.4,29.42,N/A,-32768,0.0,0.0,57,0.00,,,0.00,0,Wunderground v.1.15,2013-01-03 03:53:00,
2013-01-02 22:58:00,25.6,12.5,29.42,N/A,-32768,0.0,0.0,57,0.00,,,0.00,0,Wunderground v.1.15,2013-01-03 03:58:00,
2013-01-02 23:03:00,25.5,12.0,29.42,N/A,-32768,0.0,0.0,56,0.00,,,0.00,0,Wunderground v.1.15,2013-01-03 04:03:00,
2013-01-02 23:08:00,25.7,12.2,29.42,N/A,-32768,0.0,0.0,56,0.00,,,0.00,0,Wunderground v.1.15,2013-01-03 04:08:00,
2013-01-02 23:14:00,25.7,12.2,29.43,N/A,-32768,0.0,0.0,56,0.00,,,0.00,0,Wunderground v.1.15,2013-01-03 04:14:00,
2013-01-02 23:19:00,25.8,12.2,29.42,N/A,-32768,0.0,0.0,56,0.00,,,0.00,0,Wunderground v.1.15,2013-01-03 04:19:00,
2013-01-02 23:24:00,25.8,12.2,29.43,N/A,-32768,0.0,0.0,56,0.00,,,0.00,0,Wunderground v.1.15,2013-01-03 04:24:00,
2013-01-02 23:29:00,26.0,12.4,29.43,N/A,-32768,0.0,0.0,56,0.00,,,0.00,0,Wunderground v.1.15,2013-01-03 04:29:00,
2013-01-02 23:34:00,25.6,12.1,29.43,N/A,-32768,0.0,0.0,56,0.00,,,0.00,0,Wunderground v.1.15,2013-01-03 04:34:00,
2013-01-02 23:39:00,25.6,12.1,29.43,N/A,-32768,0.0,0.0,56,0.00,,,0.00,0,Wunderground v.1.15,2013-01-03 04:39:00,
2013-01-02 23:44:00,25.4,11.9,29.43,N/A,-32768,0.0,0.0,56,0.00,,,0.00,0,Wunderground v.1.15,2013-01-03 04:44:00,
2013-01-02 23:49:00,25.2,11.7,29.43,N/A,-32768,0.0,0.0,56,0.00,,,0.00,0,Wunderground v.1.15,2013-01-03 04:49:00,
2013-01-02 23:54:00,24.9,11.4,29.42,N/A,-32768,0.0,0.0,56,0.00,,,0.00,0,Wunderground v.1.15,2013-01-03 04:54:00,
2013-01-02 23:59:00,25.1,11.6,29.42,N/A,-32768,0.0,0.0,56,0.00,,,0.00,0,Wunderground v.1.15,2013-01-03 04:59:00,